Farmingdale, NY

3:20 PM EDT on August 27, 2016 (GMT -0400)
Republic

Weather History for KFRG - November, 2012

Change the Weather History Date:

Wednesday, November 14, 2012

  Actual Average Record
Temperature  
Mean Temperature 42 °F -  
Max Temperature 48 °F 50 °F 68 °F (2005)
Min Temperature 35 °F 36 °F 28 °F (2004)
Degree Days  
Heating Degree Days 23    
Moisture  
Dew Point 28 °F    
Average Humidity 62    
Maximum Humidity 76    
Minimum Humidity 46    
Precipitation  
Precipitation 0.00 in - - ()
Sea Level Pressure  
Sea Level Pressure 30.47 in    
Wind  
Wind Speed 8 mph (NNE)    
Max Wind Speed 16 mph    
Max Gust Speed 21 mph    
Visibility 10 miles    
Events      
Averages and records for this station are not official NWS values.
T = Trace of Precipitation, MM = Missing Value Source: NWS Daily Summary

Daily Weather History Graph

Daily Weather History Graph

Search for Another Location

Airport or City:

Trip Planner

Search our weather history database for the weather conditions in past years. The results will help you decide how hot, cold, wet, or windy it might be!

Date:

Astronomy

Nov. 14, 2012 Rise Set
Actual Time 6:39 AM EST 4:36 PM EST
Civil Twilight 6:10 AM EST 5:05 PM EST
Nautical Twilight 5:37 AM EST 5:38 PM EST
Astronomical Twilight 5:05 AM EST 6:10 PM EST
Moon 7:26 AM EST (11/14) 5:21 PM EST (11/14)
Length of Visible Light 10h 54m
Length of Day
9h 56m
New Moon, 1% of the Moon is Illuminated
Nov 14
New Moon
Nov 20
First Quarter
Nov 28
Full
Dec 6
Last Quarter
Dec 13
New

Hourly Weather History & Observations

Time (EST) Temp. Windchill Dew Point Humidity Pressure Visibility Wind Dir Wind Speed Gust Speed Precip Events Conditions
12:53 AM 39.0 °F 32.3 °F 27.0 °F 62% 30.45 in 10.0 mi North 10.4 mph - N/A   Clear
1:53 AM 37.9 °F 32.7 °F 27.0 °F 65% 30.45 in 10.0 mi North 6.9 mph - N/A   Clear
2:53 AM 37.9 °F 32.7 °F 26.1 °F 62% 30.47 in 10.0 mi North 6.9 mph - N/A   Clear
3:53 AM 37.0 °F 31.6 °F 27.0 °F 67% 30.46 in 10.0 mi North 6.9 mph - N/A   Clear
4:53 AM 37.0 °F 31.0 °F 26.1 °F 65% 30.47 in 10.0 mi North 8.1 mph - N/A   Clear
5:53 AM 36.0 °F 30.3 °F 26.1 °F 67% 30.48 in 10.0 mi NNW 6.9 mph - N/A   Clear
6:53 AM 37.0 °F 31.0 °F 27.0 °F 67% 30.49 in 10.0 mi North 8.1 mph - N/A   Clear
7:53 AM 39.0 °F 31.4 °F 27.0 °F 62% 30.50 in 10.0 mi NNE 12.7 mph - N/A   Partly Cloudy
8:53 AM 41.0 °F 33.5 °F 28.0 °F 60% 30.50 in 10.0 mi NNE 13.8 mph - N/A   Partly Cloudy
9:53 AM 43.0 °F 35.4 °F 30.0 °F 60% 30.51 in 10.0 mi NNE 16.1 mph 20.7 mph N/A   Mostly Cloudy
10:53 AM 44.1 °F 37.7 °F 30.9 °F 60% 30.51 in 10.0 mi NNE 12.7 mph 20.7 mph N/A   Overcast
11:53 AM 46.0 °F 41.4 °F 30.9 °F 56% 30.48 in 10.0 mi NE 9.2 mph 19.6 mph N/A   Overcast
12:53 PM 46.9 °F - 30.0 °F 52% 30.47 in 10.0 mi NE 10.4 mph - N/A   Overcast
1:53 PM 48.0 °F - 30.0 °F 50% 30.46 in 10.0 mi NE 8.1 mph - N/A   Clear
2:53 PM 46.9 °F - 28.0 °F 48% 30.46 in 10.0 mi NNE 11.5 mph - N/A   Clear
3:53 PM 46.0 °F 41.9 °F 26.1 °F 46% 30.47 in 10.0 mi NE 8.1 mph - N/A   Clear
4:53 PM 43.0 °F 41.3 °F 26.1 °F 51% 30.47 in 10.0 mi ENE 3.5 mph - N/A   Clear
5:53 PM 42.1 °F - 27.0 °F 55% 30.47 in 10.0 mi Calm Calm - N/A   Clear
6:53 PM 39.9 °F - 28.0 °F 63% 30.47 in 10.0 mi Calm Calm - N/A   Clear
7:53 PM 37.9 °F - 28.0 °F 68% 30.48 in 10.0 mi Calm Calm - N/A   Clear
8:53 PM 36.0 °F 31.1 °F 28.9 °F 76% 30.48 in 10.0 mi North 5.8 mph - N/A   Clear
9:53 PM 36.0 °F 30.3 °F 28.0 °F 73% 30.45 in 10.0 mi NNE 6.9 mph - N/A   Clear
10:53 PM 37.9 °F 35.5 °F 28.0 °F 68% 30.44 in 10.0 mi North 3.5 mph - N/A   Clear
11:53 PM 35.1 °F - 28.0 °F 76% 30.46 in 10.0 mi Calm Calm - N/A   Clear